timestamp,surface_pressure_avg,surface_temp_avg,battery_voltage,lat,long
2019-01-20 00:00:00+00:00,293.0447,0.2,12.97,47.84626,-54.09684
2019-01-20 00:10:00+00:00,294.333,0.22,12.89,47.84626,-54.09684
2019-01-20 00:20:00+00:00,283.238,0.23,12.97,47.84626,-54.09684
2019-01-20 00:30:00+00:00,274.8347,0.2,12.97,47.84626,-54.09684
2019-01-20 00:40:00+00:00,271.2164,0.27,12.97,47.84626,-54.09684
2019-01-20 00:50:00+00:00,257.9848,0.3,12.97,47.84626,-54.09684
2019-01-20 01:00:00+00:00,239.8697,0.31,12.89,47.84626,-54.09684
2019-01-20 01:10:00+00:00,238.5031,0.37,12.81,47.84626,-54.09684
2019-01-20 01:20:00+00:00,237.7065,0.34,12.97,47.84626,-54.09684
2019-01-20 01:30:00+00:00,222.8965,-0.16,12.97,47.84626,-54.09684
2019-01-20 01:40:00+00:00,214.8581,-0.4,12.97,47.84626,-54.09684
2019-01-20 01:50:00+00:00,218.9814,-0.4,12.97,47.84626,-54.09684
2019-01-20 02:00:00+00:00,207.0731,-0.5,12.89,47.84626,-54.09684
2019-01-20 02:10:00+00:00,194.2231,-0.5,12.81,47.84626,-54.09684
2019-01-20 02:20:00+00:00,201.5698,-0.6,12.89,47.84626,-54.09684
2019-01-20 02:30:00+00:00,201.0847,-0.6,12.89,47.84626,-54.09684
2019-01-20 02:40:00+00:00,187.0465,-0.7,12.97,47.84626,-54.09684
2019-01-20 02:50:00+00:00,179.0814,-0.7,12.97,47.84626,-54.09684
2019-01-20 03:00:00+00:00,182.5165,-0.7,12.81,47.84626,-54.09684
2019-01-20 03:10:00+00:00,179.7632,-0.52,12.81,47.84626,-54.09684
2019-01-20 03:20:00+00:00,169.0799,-0.4,12.89,47.84626,-54.09684
2019-01-20 03:30:00+00:00,167.3381,-0.3,12.89,47.84626,-54.09684
2019-01-20 03:40:00+00:00,177.7531,-0.01,12.89,47.84626,-54.09684
2019-01-20 03:50:00+00:00,182.3865,0.1,12.89,47.84626,-54.09684
2019-01-20 04:00:00+00:00,180.7748,0.1,12.81,47.84626,-54.09684
2019-01-20 04:10:00+00:00,185.2782,0.09,12.73,47.84626,-54.09684
2019-01-20 04:20:00+00:00,192.3198,0.06,12.81,47.84626,-54.09684
2019-01-20 04:30:00+00:00,195.7947,0.08,12.81,47.84626,-54.09684
2019-01-20 04:40:00+00:00,194.6215,0.09,12.89,47.84626,-54.09684
2019-01-20 04:50:00+00:00,191.9915,0.08,12.89,47.84626,-54.09684
2019-01-20 05:00:00+00:00,196.2765,0.1,12.81,47.84626,-54.09684
2019-01-20 05:10:00+00:00,200.0681,0.1,12.73,47.84626,-54.09684
2019-01-20 05:20:00+00:00,201.9164,0.2,12.81,47.84626,-54.09684
2019-01-20 05:30:00+00:00,207.6448,0.2,12.81,47.84626,-54.09684
2019-01-20 05:40:00+00:00,213.7515,0.2,12.81,47.84626,-54.09684
2019-01-20 05:50:00+00:00,221.6831,0.2,12.89,47.84626,-54.09684
2019-01-20 06:00:00+00:00,222.2164,0.23,12.73,47.84626,-54.09684
2019-01-20 06:10:00+00:00,220.7014,0.26,12.73,47.84626,-54.09684
2019-01-20 06:20:00+00:00,226.3282,0.29,12.81,47.84626,-54.09684
2019-01-20 06:30:00+00:00,232.2864,0.3,12.81,47.84626,-54.09684
2019-01-20 06:40:00+00:00,231.2064,0.3,12.81,47.84626,-54.09684
2019-01-20 06:50:00+00:00,239.6664,0.3,12.81,47.84626,-54.09684
2019-01-20 07:00:00+00:00,255.6048,0.3,12.73,47.84626,-54.09684
2019-01-20 07:10:00+00:00,261.9881,0.3,12.65,47.84626,-54.09684
2019-01-20 07:20:00+00:00,262.4781,0.3,12.81,47.84626,-54.09684
2019-01-20 07:30:00+00:00,277.6547,0.3,12.81,47.84626,-54.09684
2019-01-20 07:40:00+00:00,297.853,0.39,12.81,47.84626,-54.09684
2019-01-20 07:50:00+00:00,301.363,0.4,12.81,47.84626,-54.09684
2019-01-20 08:00:00+00:00,296.9163,0.35,12.73,47.84626,-54.09684
2019-01-20 08:10:00+00:00,307.103,0.4,12.65,47.84626,-54.09684
2019-01-20 08:20:00+00:00,321.7196,0.5,12.73,47.84626,-54.09684
2019-01-20 08:30:00+00:00,320.9613,0.49,12.73,47.84626,-54.09684
2019-01-20 08:40:00+00:00,321.9563,0.48,12.81,47.84626,-54.09684
2019-01-20 08:50:00+00:00,340.3113,0.55,12.81,47.84626,-54.09684
2019-01-20 09:00:00+00:00,353.0162,0.56,12.73,47.84626,-54.09684
2019-01-20 09:10:00+00:00,350.3896,0.23,12.65,47.84626,-54.09684
2019-01-20 09:20:00+00:00,362.9697,0.43,12.73,47.84626,-54.09684
2019-01-20 09:30:00+00:00,378.9396,0.5,12.73,47.84626,-54.09684
2019-01-20 09:40:00+00:00,381.838,0.54,12.81,47.84626,-54.09684
2019-01-20 09:50:00+00:00,379.7196,0.44,12.81,47.84626,-54.09684
2019-01-20 10:00:00+00:00,381.3062,0.55,12.73,47.84626,-54.09684
2019-01-20 10:10:00+00:00,389.3063,0.7,12.65,47.84626,-54.09684
2019-01-20 10:20:00+00:00,390.4612,0.5,12.73,47.84626,-54.09684
2019-01-20 10:30:00+00:00,391.403,0.19,12.73,47.84626,-54.09684
2019-01-20 10:40:00+00:00,392.5446,0.25,12.81,47.84626,-54.09684
2019-01-20 10:50:00+00:00,397.9562,0.3,12.81,47.84626,-54.09684
2019-01-20 11:00:00+00:00,410.6246,0.3,12.73,47.84626,-54.09684
2019-01-20 11:10:00+00:00,408.2329,0.3,12.65,47.84626,-54.09684
2019-01-20 11:20:00+00:00,403.8079,0.2,12.73,47.84626,-54.09684
2019-01-20 11:30:00+00:00,408.4612,0.2,12.73,47.84626,-54.09684
2019-01-20 11:40:00+00:00,408.7429,0.2,12.81,47.84626,-54.09684
2019-01-20 11:50:00+00:00,397.2845,0.07,12.81,47.84626,-54.09684
2019-01-20 12:00:00+00:00,387.9146,-0.1,12.81,47.84626,-54.09684
2019-01-20 12:10:00+00:00,383.558,-0.07,14.32,47.84626,-54.09684
2019-01-20 12:20:00+00:00,376.6979,-0.1,14.88,47.84626,-54.09684
2019-01-20 12:30:00+00:00,359.7164,-0.31,14.08,47.84626,-54.09684
2019-01-20 12:40:00+00:00,359.3563,-0.43,14.64,47.84626,-54.09684
2019-01-20 12:50:00+00:00,361.3679,-0.5,14.32,47.84626,-54.09684
2019-01-20 13:00:00+00:00,345.4095,-0.4,14.16,47.84626,-54.09684
2019-01-20 13:10:00+00:00,341.8163,-0.4,14.16,47.84626,-54.09684
2019-01-20 13:20:00+00:00,339.313,-0.36,15.75,47.84626,-54.09684
2019-01-20 13:30:00+00:00,327.8663,-0.4,16.39,47.84626,-54.09684
2019-01-20 13:40:00+00:00,307.5147,-0.4,15.44,47.84626,-54.09684
2019-01-20 13:50:00+00:00,303.4247,-0.4,16.39,47.84626,-54.09684
2019-01-20 14:00:00+00:00,298.9797,-0.4,14.72,47.84626,-54.09684
2019-01-20 14:10:00+00:00,281.2513,-0.4,14.88,47.84626,-54.09684
2019-01-20 14:20:00+00:00,268.1514,-0.4,15.51,47.84626,-54.09684
2019-01-20 14:30:00+00:00,267.5947,-0.4,14.88,47.84626,-54.09684
2019-01-20 14:40:00+00:00,254.3781,-0.4,14.88,47.84626,-54.09684
2019-01-20 14:50:00+00:00,242.2765,-0.4,14.88,47.84626,-54.09684
2019-01-20 15:00:00+00:00,244.1281,-0.4,14.72,47.84626,-54.09684
2019-01-20 15:10:00+00:00,245.6398,-0.4,14.64,47.84626,-54.09684
2019-01-20 15:20:00+00:00,232.1447,-0.4,14.8,47.84626,-54.09684
2019-01-20 15:30:00+00:00,222.7414,-0.4,14.8,47.84626,-54.09684
2019-01-20 15:40:00+00:00,224.8298,-0.4,14.8,47.84626,-54.09684
2019-01-20 15:50:00+00:00,218.3681,-0.4,14.88,47.84626,-54.09684
2019-01-20 16:00:00+00:00,207.8531,-0.39,14.64,47.84626,-54.09684
2019-01-20 16:10:00+00:00,208.3997,-0.32,16.71,47.84626,-54.09684
2019-01-20 16:20:00+00:00,204.4481,-0.3,14.96,47.84626,-54.09684
2019-01-20 16:30:00+00:00,197.1448,-0.2,14.88,47.84626,-54.09684
2019-01-20 16:40:00+00:00,197.8398,-0.14,14.88,47.84626,-54.09684
2019-01-20 16:50:00+00:00,200.0415,-0.1,15.2,47.84626,-54.09684
2019-01-20 17:00:00+00:00,196.4048,-0.0,16.23,47.84626,-54.09684
2019-01-20 17:10:00+00:00,193.4698,0.0,16.87,47.84626,-54.09684
2019-01-20 17:20:00+00:00,199.1615,0.0,14.96,47.84626,-54.09684
2019-01-20 17:30:00+00:00,203.5781,0.0,14.72,47.84626,-54.09684
2019-01-20 17:40:00+00:00,196.2731,0.0,14.88,47.84626,-54.09684
2019-01-20 17:50:00+00:00,193.8115,0.0,14.96,47.84626,-54.09684
2019-01-20 18:00:00+00:00,202.9781,0.0,14.72,47.84626,-54.09684
2019-01-20 18:10:00+00:00,202.2314,0.0,14.64,47.84626,-54.09684
2019-01-20 18:20:00+00:00,197.1015,0.0,14.64,47.84626,-54.09684
2019-01-20 18:30:00+00:00,201.5198,0.0,14.64,47.84626,-54.09684
2019-01-20 18:40:00+00:00,206.0931,0.0,14.64,47.84626,-54.09684
2019-01-20 18:50:00+00:00,200.4598,0.0,14.56,47.84626,-54.09684
2019-01-20 19:00:00+00:00,208.1448,0.0,14.4,47.84626,-54.09684
2019-01-20 19:10:00+00:00,223.9482,-0.01,14.16,47.84626,-54.09684
2019-01-20 19:20:00+00:00,222.2831,0.0,14.16,47.84626,-54.09684
2019-01-20 19:30:00+00:00,223.5097,0.0,14.08,47.84626,-54.09684
2019-01-20 19:40:00+00:00,237.9565,0.0,14.0,47.84626,-54.09684
2019-01-20 19:50:00+00:00,249.4464,0.01,13.92,47.84626,-54.09684
2019-01-20 20:00:00+00:00,264.4064,0.09,13.76,47.84626,-54.09684
2019-01-20 20:10:00+00:00,279.123,0.1,13.6,47.84626,-54.09684
2019-01-20 20:20:00+00:00,284.0714,0.16,13.53,47.84626,-54.09684
2019-01-20 20:30:00+00:00,278.673,0.1,13.44,47.84626,-54.09684
2019-01-20 20:40:00+00:00,278.5247,0.1,13.44,47.84626,-54.09684
2019-01-20 20:50:00+00:00,294.038,0.1,13.44,47.84626,-54.09684
2019-01-20 21:00:00+00:00,312.9363,0.1,13.29,47.84626,-54.09684
2019-01-20 21:10:00+00:00,320.3229,0.09,13.13,47.84626,-54.09684
2019-01-20 21:20:00+00:00,325.653,0.1,13.21,47.84626,-54.09684
2019-01-20 21:30:00+00:00,338.578,0.1,13.13,47.84626,-54.09684
2019-01-20 21:40:00+00:00,353.4913,0.1,13.21,47.84626,-54.09684
2019-01-20 21:50:00+00:00,349.1996,0.12,13.21,47.84626,-54.09684
2019-01-20 22:00:00+00:00,354.6713,0.06,13.05,47.84626,-54.09684
2019-01-20 22:10:00+00:00,358.7345,0.06,12.97,47.84626,-54.09684
2019-01-20 22:20:00+00:00,356.5913,0.06,13.05,47.84626,-54.09684
2019-01-20 22:30:00+00:00,355.6863,0.06,13.05,47.84626,-54.09684
2019-01-20 22:40:00+00:00,363.3046,0.1,13.05,47.84626,-54.09684
2019-01-20 22:50:00+00:00,364.1896,0.05,13.05,47.84626,-54.09684
2019-01-20 23:00:00+00:00,356.7897,0.09,12.97,47.84626,-54.09684
2019-01-20 23:10:00+00:00,367.438,0.1,12.89,47.84626,-54.09684
2019-01-20 23:20:00+00:00,372.9729,0.1,12.97,47.84626,-54.09684
2019-01-20 23:30:00+00:00,359.2729,0.08,13.05,47.84626,-54.09684
2019-01-20 23:40:00+00:00,356.7396,0.05,13.05,47.84626,-54.09684
2019-01-20 23:50:00+00:00,368.0146,0.01,13.05,47.84626,-54.09684
